Torna al catalogo

STARLINK-36421

AttivoComunicazioniVLEO
NORAD 67464·PAYLOAD·🇺🇸 United States

Lanciato Jan 14, 2026 da Cape Canaveral Space Force Station

Loading…

Prossimi Passaggi (prossime 24 ore)

TLE

AggiornatoSource: CelesTrak SupGP

Epoca: Sep 14, 2026, 23:15 UTC

1 67464C 26008V   26257.96923611 -.00006381  00000+0 -23109-3 0  2576
2 67464  42.9995 215.9419 0001349 262.4828 107.4699 15.27584266    10

Traccia STARLINK-36421 in tempo reale con AllMySat

Download on the App Store